Location: Sabalos
(43.2860°N, 0.1414°E)
Time: 20:07:22
(UTC+00:00)

Cosmos 1340 - Pass Details

Date: 05 July 2020
Orbit: 502 x 505 km, 81.2° (Epoch: 14 August)

Event Time Altitude Azimuth Distance (km) Brightness Sun altitude
Exits shadow 23:34:28 49° 50° (NE) 653 3.3 -23.7°
Drops below altitude 10° 23:37:30 10° 17° (NNE) 1,720 6.2 -23.8°
Sets 23:39:39 0° 14° (NNE) 2,610 7.4 -23.8°
